Regional Weather Roundup
Issued by NWS

Home | Current Version | Previous Version | Text Only | Print | Product List | Glossary Off
Versions: 1 2 3 4 5 6 7 8 9 10 11 12 13 14 15 16 17 18 19 20 21 22 23 24 25 26 27 28 29 30 31 32 33 34 35 36 37 38 39 40 41 42 43 44 45 46 47 48 49 50

000
ASUS43 KDTX 271001
RWRMI
MICHIGAN HOURLY REGIONAL WEATHER ROUNDUP
NATIONAL WEATHER SERVICE DETROIT/PONTIAC MI
600 AM EDT TUE SEP 27 2016

NOTE: "FAIR" INDICATES FEW OR NO CLOUDS BELOW 12,000 FEET WITH NO
SIGNIFICANT WEATHER AND/OR OBSTRUCTION TO VISIBILITY.

MIZ047>049-052>055-059>063-066>070-074>076-081>083-271100-
SOUTHEAST LOWER MICHIGAN

CITY           SKY/WX    TMP DP  RH WIND       PRES   REMARKS
ADRIAN         CLEAR     45  41  86 SW5       29.86F
ALMA           PTCLDY    50  46  84 SW9       29.74S
ANN ARBOR      CLEAR     48  40  73 S8        29.83S
BAD AXE        PTCLDY    48  42  81 S9        29.73F
CARO           PTCLDY    45  42  90 S5        29.74F
DETROIT CITY   CLEAR     53  40  61 SW12G18   29.83S
DETROIT        CLEAR     50  41  71 S12       29.84F
FLINT          CLEAR     50  40  68 SW10      29.78F
GROSSE ILE     CLEAR     54  39  57 SW10G17   29.83F
HILLSDALE      CLEAR     48  37  66 S7        29.83F
HOWELL         CLEAR     50  40  68 SW7       29.79F

CITY           SKY/WX    TMP DP  RH WIND       PRES   REMARKS
JACKSON        CLEAR     51  39  63 SW9       29.81F
LAMBERTVILLE   CLEAR     55  38  54 SW6       29.86F
LANSING        CLEAR     51  40  65 SW12      29.78F
LAPEER         FAIR      49  41  72 S7        29.78S
MASON          CLEAR     50  40  69 CALM      29.79F
MONROE         CLEAR     52  40  63 SW8       29.84F
MT. CLEMENS    CLEAR     53  40  63 SW12      29.78F
PONTIAC        CLEAR     52  40  63 S7        29.79F
PORT HURON     CLEAR     48  41  76 CALM      29.79F
TRI CITIES     PTCLDY    51  43  74 S9        29.73F
MIDLAND        FAIR      48  42  80 SW3       29.71F
TROY           CLEAR     52  39  59 SW9       29.83S
SAGINAW HB     PTCLDY    50  43  76 S10       29.73F
$$
MIZ043>046-050>051-056>058-064>065-071>073-077>080-271100-
SOUTHWEST LOWER MICHIGAN

CITY           SKY/WX    TMP DP  RH WIND       PRES   REMARKS
BATTLE CREEK   CLEAR     50  41  71 SW14      29.80F
BENTON HARBOR  CLEAR     63  43  48 W21G26    29.80F
BIG RAPIDS     PTCLDY    50  43  77 SW5       29.70F
COLDWATER      CLEAR     51  37  58 SW8       29.83F
FREMONT        FAIR      53  39  59 SW5       29.72F
HOLLAND        CLEAR     62  42  47 W17G23    29.76F
GRAND RAPIDS   CLEAR     52  41  66 SW9       29.76F
IONIA          FAIR      50  40  68 SW7       29.75F
KALAMAZOO      CLEAR     52  39  61 SW12      29.81F
LUDINGTON      MOCLDY    58  43  57 W10G22    29.68F
MARSHALL       CLEAR     51  39  63 SW6       29.81F
MOUNT PLEASANT PTCLDY    51  43  75 SW7       29.71F
MUSKEGON       PTCLDY    61  41  47 W14G22    29.73F
SOUTH HAVEN    CLEAR     64  43  46 W14G22    29.78F
$$
MIZ016>042-271100-
NORTHERN LOWER MICHIGAN

CITY           SKY/WX    TMP DP  RH WIND       PRES   REMARKS
ALPENA         CLOUDY    53  42  66 S10       29.63F
BEAVER ISLAND  DRIZZLE   54  49  82 W22G28    29.54F
BELLAIRE       CLOUDY    53  50  89 CALM      29.61F
CADILLAC       MOCLDY    49  42  75 SW8       29.66F
CHARLEVOIX     CLOUDY    57  46  67 W21G29    29.60F
FRANKFORT      CLOUDY    59  44  57 W12G25    29.63F
GAYLORD        CLOUDY    49  44  83 SW12      29.61F
GRAYLING       CLOUDY    50  44  79 S5        29.64F
HARBOR SPRINGS CLOUDY    55  51  87 S8G20     29.56F
HOUGHTON LAKE  PTCLDY    51  42  71 SW12      29.67F
MANISTEE       CLOUDY    59  44  57 W20G25    29.65F
OSCODA         CLOUDY    49  42  76 SW10      29.67F
PELLSTON       CLOUDY    53  48  83 VRB6      29.56F
ROGERS CITY    CLOUDY    52  46  79 S7        29.60F
TRAVERSE CITY  CLOUDY    56  46  69 SW7       29.61F
$$
MIZ007>008-015-271100-
EASTERN UPPER MICHIGAN

CITY           SKY/WX    TMP DP  RH WIND       PRES   REMARKS
KINROSS        CLOUDY    50  47  89 SW5       29.53S
MACKINAC ISLAN LGT RAIN  54  49  83 W10G21    29.54S
NEWBERRY       CLOUDY    50  48  94 SW12G17   29.51S
S. S. MARIE    CLOUDY    51  47  86 SW7       29.52S
MUNISING         N/A     52  47  83 SW7       29.50S
$$
MIZ004>006-011>014-085-271100-
CENTRAL UPPER MICHIGAN

CITY           SKY/WX    TMP DP  RH WIND       PRES   REMARKS
MANISTIQUE     CLOUDY    53  46  77 W7        29.53S
ESCANABA       CLOUDY    53  46  77 W12       29.56S
MENOMINEE      CLOUDY    54  44  69 VRB6      29.62S
SAWYER-GWINN   CLOUDY    49  46  89 W12       29.51S
$$
MIZ001>003-009>011-084-271100-
WESTERN UPPER MICHIGAN

CITY           SKY/WX    TMP DP  RH WIND       PRES   REMARKS
IRON MOUNTAIN  CLOUDY    51  43  74 W10       29.56S
HOUGHTON       RAIN      50  47  89 NW20G28   29.47R FOG
COPPER HARBOR    N/A     51  50  96 NW14G23   29.43S
IRONWOOD       LGT RAIN  48  47  96 W18       29.61S FOG
$$

ABBREVIATIONS USED IN REMARKS
   TC - TEMPERATURE IN CELSIUS
  WCI - WIND CHILL INDEX
   HX - HEAT INDEX
  VSB - VISIBILITY




USA.gov is the U.S. government's official web portal to all federal, state and local government web resources and services.